Home   Weather   Feira de Santana   Past weeks

Flag for Brazil Past Weather in Feira de Santana, Bahia, Brazil — Yesterday and Last 2 Weeks

Now
82 °F

Passing clouds.


Feels Like: 85 °F
Forecast: N/A
Wind: 12 mph from East

Location: Salvador Aeroporto

Current Time: Jan 19, 2017 at 6:30:32 pm

Latest Report: Jan 19, 2017 at 6:00 pm


Visibility: N/A

Pressure: 29.92 "Hg

Humidity: 62%

Dew Point: 68 °F

Location of Feira de SantanaLocation

Past Weather in Feira de Santana — Graph

°F

Feira de Santana Temperature Yesterday

Maximum temperature yesterday: 86 °F (at 11:00 am)
Minimum temperature yesterday: 75 °F (at 1:00 am)
Average temperature yesterday: 81 °F

High & Low Weather Summary for the Past Weeks

 TemperatureHumidityPressure
High86 °F (Jan 5, 10:00 am)100% (Jan 5, 5:00 am)30.04 "Hg (Jan 5, 5:00 am)
Low73 °F (Jan 8, 12:42 am)55% (Jan 6, 12:00 pm)29.80 "Hg (Jan 14, 3:00 pm)
Average81 °F70%29.91 "Hg
* Reported Jan 4 5:00 pm — Jan 19 5:00 pm, Feira de Santana, Weather by CustomWeather, © 2017

Note: Actual official high and low records may vary slightly from our data, if they occured in-between our weather recording intervals... More about our weather records

Advertising

Feira de Santana Weather History for the Previous 24 Hours

Scroll right to see more
 ConditionsComfort  
Time TempWeatherWind HumidityBarometerVisibility
5:00 pm
Thu, Jan 19
84 °FScattered clouds.12 mph62%29.92 "HgN/A
4:00 pm84 °FScattered clouds.12 mph58%29.92 "HgN/A
3:00 pm84 °FScattered clouds.12 mph58%29.92 "HgN/A
2:00 pm86 °FScattered clouds.12 mph59%29.92 "HgN/A
1:00 pm84 °FScattered clouds.12 mph66%29.95 "HgN/A
12:00 pm86 °FScattered clouds.13 mph59%29.95 "HgN/A
11:00 am86 °FScattered clouds.14 mph59%29.98 "HgN/A
10:00 am84 °FScattered clouds.14 mph66%29.98 "HgN/A
9:00 am84 °FPartly sunny.13 mph62%29.98 "HgN/A
8:00 am84 °FScattered clouds.12 mph62%29.95 "HgN/A
7:00 am81 °FScattered clouds.10 mph74%29.95 "HgN/A
6:00 am79 °FScattered clouds.7 mph74%29.92 "HgN/A
5:00 am79 °FPassing clouds.8 mph74%29.92 "HgN/A
4:00 am77 °FPassing clouds.7 mph79%29.89 "HgN/A
3:00 am77 °FPassing clouds.6 mph79%29.89 "HgN/A
2:00 am79 °FPassing clouds.9 mph74%29.89 "HgN/A
1:00 am79 °FPassing clouds.8 mph74%29.92 "HgN/A
12:00 am79 °FPassing clouds.12 mph74%29.92 "HgN/A
11:00 pm
Wed, Jan 18
79 °FPassing clouds.13 mph79%29.95 "HgN/A
10:00 pm81 °FPassing clouds.12 mph74%29.95 "HgN/A
9:00 pm81 °FPassing clouds.12 mph74%29.92 "HgN/A
8:00 pm81 °FPassing clouds.10 mph74%29.92 "HgN/A
7:00 pm81 °FPassing clouds.12 mph74%29.89 "HgN/A
6:00 pm81 °FPassing clouds.12 mph70%29.89 "HgN/A
Weather by CustomWeather, © 2017

See weather overviewHow to use our weather pages